sat.trackr.live / text

‹ back to catalog

STARLINK-36591

NORAD 67576 · 2026-016R

PAYLOAD ACTIVE UNKNOWN

§ Identity

Operator
Country
US
Launch date
2026-01-25
Launch site
AFWTR
Launch vehicle
Mass (kg)
RCS (m²)

Purposes: comms

External: N2YO · Heavens-Above · Gunter

§ Orbital elements

Epoch: 2026-05-25T03:22:50.857824Z

Period
93.91 min
Inclination
97.2853°
Eccentricity
0.0001100
Mean motion
15.33445276 rev/d
Perigee alt
464.8 km
Apogee alt
466.3 km
Semi-major
6,843.7 km
B*
7.9723e-4
RAAN
205.5202°
Arg perigee
90.8873°
Mean anomaly
269.2496°
Rev number
1,858

§ Raw data

STARLINK-365911 67576U 26016R   26145.14086641  .00025750  00000+0  79723-3 0  99932 67576  97.2853 205.5202 0001100  90.8873 269.2496 15.33445276 18580

JSON: /api/v1/satellites/67576 · /tle

For live sub-satellite position, see the globe view (requires WebGL).

§ Visibility from observer

Set your observer location to see the next 7 days of passes ≥ 10°. The values pass through the URL so the page stays shareable.

No JS? Fill the form by hand. The geolocation button needs JavaScript.